Year,Month,Day,Hour,Minute,Value (Times are PST for temperature in C)
2012,08,06,00,00,13.70
2012,08,06,00,01,13.80
2012,08,06,00,02,13.80
2012,08,06,00,03,13.80
2012,08,06,00,04,13.80
2012,08,06,00,05,13.80
2012,08,06,00,06,13.80
2012,08,06,00,07,13.80
2012,08,06,00,08,13.80
2012,08,06,00,09,13.80
2012,08,06,00,10,13.80
2012,08,06,00,11,13.80
2012,08,06,00,12,13.80
2012,08,06,00,13,13.80
2012,08,06,00,14,13.90
2012,08,06,00,15,13.80
2012,08,06,00,16,13.80
2012,08,06,00,17,13.70
2012,08,06,00,18,13.70
2012,08,06,00,19,13.70
2012,08,06,00,20,13.80
2012,08,06,00,21,13.80
2012,08,06,00,22,13.80
2012,08,06,00,23,13.80
2012,08,06,00,24,13.70
2012,08,06,00,25,13.70
2012,08,06,00,26,13.70
2012,08,06,00,27,13.70
2012,08,06,00,28,13.70
2012,08,06,00,29,13.70
2012,08,06,00,30,13.60
2012,08,06,00,31,13.60
2012,08,06,00,32,13.60
2012,08,06,00,33,13.50
2012,08,06,00,34,13.50
2012,08,06,00,35,13.50
2012,08,06,00,36,13.40
2012,08,06,00,37,13.40
2012,08,06,00,38,13.40
2012,08,06,00,39,13.40
2012,08,06,00,40,13.40
2012,08,06,00,41,13.30
2012,08,06,00,42,13.30
2012,08,06,00,43,13.30
2012,08,06,00,44,13.30
2012,08,06,00,45,13.30
2012,08,06,00,46,13.30
2012,08,06,00,47,13.30
2012,08,06,00,48,13.30
2012,08,06,00,49,13.30
2012,08,06,00,50,13.30
2012,08,06,00,51,13.30
2012,08,06,00,52,13.30
2012,08,06,00,53,13.30
2012,08,06,00,54,13.30
2012,08,06,00,55,13.30
2012,08,06,00,56,13.30
2012,08,06,00,57,13.30
2012,08,06,00,58,13.30
2012,08,06,00,59,13.30
2012,08,06,01,00,13.30
2012,08,06,01,01,13.30
2012,08,06,01,02,13.30
2012,08,06,01,03,13.30
2012,08,06,01,04,13.30
2012,08,06,01,05,13.30
2012,08,06,01,06,13.30
2012,08,06,01,07,13.30
2012,08,06,01,08,13.30
2012,08,06,01,09,13.20
2012,08,06,01,10,13.20
2012,08,06,01,11,13.20
2012,08,06,01,12,13.20
2012,08,06,01,13,13.20
2012,08,06,01,14,13.20
2012,08,06,01,15,13.20
2012,08,06,01,16,13.10
2012,08,06,01,17,13.10
2012,08,06,01,18,13.10
2012,08,06,01,19,13.10
2012,08,06,01,20,13.10
2012,08,06,01,21,13.10
2012,08,06,01,22,13.10
2012,08,06,01,23,13.20
2012,08,06,01,24,13.20
2012,08,06,01,25,13.20
2012,08,06,01,26,13.20
2012,08,06,01,27,13.20
2012,08,06,01,28,13.20
2012,08,06,01,29,13.20
2012,08,06,01,30,13.20
2012,08,06,01,31,13.20
2012,08,06,01,32,13.20
2012,08,06,01,33,13.20
2012,08,06,01,34,13.20
2012,08,06,01,35,13.10
2012,08,06,01,36,13.10
2012,08,06,01,37,13.10
2012,08,06,01,38,13.10
2012,08,06,01,39,13.10
2012,08,06,01,40,13.10
2012,08,06,01,41,13.10
2012,08,06,01,42,13.00
2012,08,06,01,43,13.00
2012,08,06,01,44,13.00
2012,08,06,01,45,13.00
2012,08,06,01,46,12.90
2012,08,06,01,47,12.90
2012,08,06,01,48,12.90
2012,08,06,01,49,12.90
2012,08,06,01,50,12.90
2012,08,06,01,51,12.90
2012,08,06,01,52,12.90
2012,08,06,01,53,12.90
2012,08,06,01,54,13.00
2012,08,06,01,55,13.00
2012,08,06,01,56,13.00
2012,08,06,01,57,13.00
2012,08,06,01,58,13.00
2012,08,06,01,59,13.00
2012,08,06,02,00,13.00
2012,08,06,02,01,13.00
2012,08,06,02,02,13.00
2012,08,06,02,03,13.00
2012,08,06,02,04,13.00
2012,08,06,02,05,13.00
2012,08,06,02,06,13.00
2012,08,06,02,07,12.90
2012,08,06,02,08,12.90
2012,08,06,02,09,12.90
2012,08,06,02,10,12.90
2012,08,06,02,11,12.80
2012,08,06,02,12,12.80
2012,08,06,02,13,12.70
2012,08,06,02,14,12.70
2012,08,06,02,15,12.60
2012,08,06,02,16,12.50
2012,08,06,02,17,12.50
2012,08,06,02,18,12.40
2012,08,06,02,19,12.40
2012,08,06,02,20,12.40
2012,08,06,02,21,12.40
2012,08,06,02,22,12.30
2012,08,06,02,23,12.30
2012,08,06,02,24,12.30
2012,08,06,02,25,12.30
2012,08,06,02,26,12.30
2012,08,06,02,27,12.30
2012,08,06,02,28,12.30
2012,08,06,02,29,12.30
2012,08,06,02,30,12.30
2012,08,06,02,31,12.30
2012,08,06,02,32,12.30
2012,08,06,02,33,12.30
2012,08,06,02,34,12.40
2012,08,06,02,35,12.40
2012,08,06,02,36,12.50
2012,08,06,02,37,12.50
2012,08,06,02,38,12.60
2012,08,06,02,39,12.60
2012,08,06,02,40,12.70
2012,08,06,02,41,12.70
2012,08,06,02,42,12.80
2012,08,06,02,43,12.80
2012,08,06,02,44,12.80
2012,08,06,02,45,12.90
2012,08,06,02,46,12.90
2012,08,06,02,47,12.90
2012,08,06,02,48,12.90
2012,08,06,02,49,13.00
2012,08,06,02,50,13.00
2012,08,06,02,51,13.00
2012,08,06,02,52,12.90
2012,08,06,02,53,12.90
2012,08,06,02,54,12.80
2012,08,06,02,55,12.80
2012,08,06,02,56,12.70
2012,08,06,02,57,12.60
2012,08,06,02,58,12.60
2012,08,06,02,59,12.50
2012,08,06,03,00,12.50
2012,08,06,03,01,12.40
2012,08,06,03,02,12.40
2012,08,06,03,03,12.40
2012,08,06,03,04,12.40
2012,08,06,03,05,12.30
2012,08,06,03,06,12.30
2012,08,06,03,07,12.30
2012,08,06,03,08,12.30
2012,08,06,03,09,12.30
2012,08,06,03,10,12.20
2012,08,06,03,11,12.20
2012,08,06,03,12,12.20
2012,08,06,03,13,12.20
2012,08,06,03,14,12.20
2012,08,06,03,15,12.10
2012,08,06,03,16,12.10
2012,08,06,03,17,12.10
2012,08,06,03,18,12.10
2012,08,06,03,19,12.10
2012,08,06,03,20,12.20
2012,08,06,03,21,12.20
2012,08,06,03,22,12.20
2012,08,06,03,23,12.20
2012,08,06,03,24,12.20
2012,08,06,03,25,12.20
2012,08,06,03,26,12.20
2012,08,06,03,27,12.20
2012,08,06,03,28,12.20
2012,08,06,03,29,12.10
2012,08,06,03,30,12.10
2012,08,06,03,31,12.10
2012,08,06,03,32,12.10
2012,08,06,03,33,12.10
2012,08,06,03,34,12.10
2012,08,06,03,35,12.10
2012,08,06,03,36,12.10
2012,08,06,03,37,12.10
2012,08,06,03,38,12.10
2012,08,06,03,39,12.10
2012,08,06,03,40,12.20
2012,08,06,03,41,12.20
2012,08,06,03,42,12.20
2012,08,06,03,43,12.30
2012,08,06,03,44,12.30
2012,08,06,03,45,12.30
2012,08,06,03,46,12.30
2012,08,06,03,47,12.30
2012,08,06,03,48,12.30
2012,08,06,03,49,12.30
2012,08,06,03,50,12.30
2012,08,06,03,51,12.30
2012,08,06,03,52,12.30
2012,08,06,03,53,12.30
2012,08,06,03,54,12.30
2012,08,06,03,55,12.30
2012,08,06,03,56,12.30
2012,08,06,03,57,12.30
2012,08,06,03,58,12.30
2012,08,06,03,59,12.30
2012,08,06,04,00,12.30
2012,08,06,04,01,12.30
2012,08,06,04,02,12.30
2012,08,06,04,03,12.40
2012,08,06,04,04,12.40
2012,08,06,04,05,12.40
2012,08,06,04,06,12.40
2012,08,06,04,07,12.40
2012,08,06,04,08,12.30
2012,08,06,04,09,12.30
2012,08,06,04,10,12.30
2012,08,06,04,11,12.20
2012,08,06,04,12,12.10
2012,08,06,04,13,12.10
2012,08,06,04,14,12.00
2012,08,06,04,15,12.00
2012,08,06,04,16,12.00
2012,08,06,04,17,12.00
2012,08,06,04,18,12.00
2012,08,06,04,19,12.00
2012,08,06,04,20,12.00
2012,08,06,04,21,12.00
2012,08,06,04,22,12.00
2012,08,06,04,23,11.90
2012,08,06,04,24,11.90
2012,08,06,04,25,11.90
2012,08,06,04,26,11.90
2012,08,06,04,27,11.90
2012,08,06,04,28,11.90
2012,08,06,04,29,11.90
2012,08,06,04,30,11.90
2012,08,06,04,31,11.90
2012,08,06,04,32,11.90
2012,08,06,04,33,12.00
2012,08,06,04,34,12.00
2012,08,06,04,35,12.00
2012,08,06,04,36,12.00
2012,08,06,04,37,12.00
2012,08,06,04,38,12.00
2012,08,06,04,39,12.00
2012,08,06,04,40,12.00
2012,08,06,04,41,12.00
2012,08,06,04,42,12.00
2012,08,06,04,43,12.00
2012,08,06,04,44,12.00
2012,08,06,04,45,12.00
2012,08,06,04,46,12.00
2012,08,06,04,47,12.00
2012,08,06,04,48,12.00
2012,08,06,04,49,12.00
2012,08,06,04,50,12.00
2012,08,06,04,51,12.00
2012,08,06,04,52,12.00
2012,08,06,04,53,12.00
2012,08,06,04,54,12.00
2012,08,06,04,55,12.10
2012,08,06,04,56,12.10
2012,08,06,04,57,12.10
2012,08,06,04,58,12.10
2012,08,06,04,59,12.10
2012,08,06,05,00,12.10
2012,08,06,05,01,12.10
2012,08,06,05,02,12.10
2012,08,06,05,03,12.10
2012,08,06,05,04,12.10
2012,08,06,05,05,12.20
2012,08,06,05,06,12.20
2012,08,06,05,07,12.20
2012,08,06,05,08,12.20
2012,08,06,05,09,12.20
2012,08,06,05,10,12.20
2012,08,06,05,11,12.30
2012,08,06,05,12,12.30
2012,08,06,05,13,12.30
2012,08,06,05,14,12.30
2012,08,06,05,15,12.30
2012,08,06,05,16,12.30
2012,08,06,05,17,12.30
2012,08,06,05,18,12.30
2012,08,06,05,19,12.30
2012,08,06,05,20,12.30
2012,08,06,05,21,12.30
2012,08,06,05,22,12.30
2012,08,06,05,23,12.30
2012,08,06,05,24,12.30
2012,08,06,05,25,12.40
2012,08,06,05,26,12.40
2012,08,06,05,27,12.40
2012,08,06,05,28,12.40
2012,08,06,05,29,12.40
2012,08,06,05,30,12.40
2012,08,06,05,31,12.40
2012,08,06,05,32,12.50
2012,08,06,05,33,12.50
2012,08,06,05,34,12.50
2012,08,06,05,35,12.50
2012,08,06,05,36,12.50
2012,08,06,05,37,12.50
2012,08,06,05,38,12.50
2012,08,06,05,39,12.50
2012,08,06,05,40,12.50
2012,08,06,05,41,12.50
2012,08,06,05,42,12.50
2012,08,06,05,43,12.50
2012,08,06,05,44,12.50
2012,08,06,05,45,12.50
2012,08,06,05,46,12.50
2012,08,06,05,47,12.50
2012,08,06,05,48,12.50
2012,08,06,05,49,12.50
2012,08,06,05,50,12.50
2012,08,06,05,51,12.50
2012,08,06,05,52,12.50
2012,08,06,05,53,12.50
2012,08,06,05,54,12.50
2012,08,06,05,55,12.50
2012,08,06,05,56,12.50
2012,08,06,05,57,12.40
2012,08,06,05,58,12.40
2012,08,06,05,59,12.40
2012,08,06,06,00,12.40
2012,08,06,06,01,12.40
2012,08,06,06,02,12.40
2012,08,06,06,03,12.40
2012,08,06,06,04,12.40
2012,08,06,06,05,12.40
2012,08,06,06,06,12.40
2012,08,06,06,07,12.40
2012,08,06,06,08,12.40
2012,08,06,06,09,12.40
2012,08,06,06,10,12.50
2012,08,06,06,11,12.50
2012,08,06,06,12,12.50
2012,08,06,06,13,12.60
2012,08,06,06,14,12.60
2012,08,06,06,15,12.60
2012,08,06,06,16,12.60
2012,08,06,06,17,12.60
2012,08,06,06,18,12.60
2012,08,06,06,19,12.60
2012,08,06,06,20,12.60
2012,08,06,06,21,12.60
2012,08,06,06,22,12.60
2012,08,06,06,23,12.60
2012,08,06,06,24,12.60
2012,08,06,06,25,12.60
2012,08,06,06,26,12.60
2012,08,06,06,27,12.60
2012,08,06,06,28,12.60
2012,08,06,06,29,12.60
2012,08,06,06,30,12.60
2012,08,06,06,31,12.60
2012,08,06,06,32,12.60
2012,08,06,06,33,12.60
2012,08,06,06,34,12.60
2012,08,06,06,35,12.60
2012,08,06,06,36,12.60
2012,08,06,06,37,12.60
2012,08,06,06,38,12.60
2012,08,06,06,39,12.70
2012,08,06,06,40,12.70
2012,08,06,06,41,12.70
2012,08,06,06,42,12.70
2012,08,06,06,43,12.80
2012,08,06,06,44,12.80
2012,08,06,06,45,12.80
2012,08,06,06,46,12.90
2012,08,06,06,47,12.90
2012,08,06,06,48,13.00
2012,08,06,06,49,13.00
2012,08,06,06,50,13.10
2012,08,06,06,51,13.10
2012,08,06,06,52,13.20
2012,08,06,06,53,13.20
2012,08,06,06,54,13.30
2012,08,06,06,55,13.30
2012,08,06,06,56,13.30
2012,08,06,06,57,13.40
2012,08,06,06,58,13.50
2012,08,06,06,59,13.50
2012,08,06,07,00,13.60
2012,08,06,07,01,13.70
2012,08,06,07,02,13.70
2012,08,06,07,03,13.70
2012,08,06,07,04,13.80
2012,08,06,07,05,13.80
2012,08,06,07,06,13.90
2012,08,06,07,07,13.90
2012,08,06,07,08,13.90
2012,08,06,07,09,13.90
2012,08,06,07,10,14.00
2012,08,06,07,11,14.00
2012,08,06,07,12,14.00
2012,08,06,07,13,14.10
2012,08,06,07,14,14.10
2012,08,06,07,15,14.20
2012,08,06,07,16,14.20
2012,08,06,07,17,14.20
2012,08,06,07,18,14.20
2012,08,06,07,19,14.20
2012,08,06,07,20,14.20
2012,08,06,07,21,14.20
2012,08,06,07,22,14.20
2012,08,06,07,23,14.20
2012,08,06,07,24,14.30
2012,08,06,07,25,14.30
2012,08,06,07,26,14.30
2012,08,06,07,27,14.30
2012,08,06,07,28,14.20
2012,08,06,07,29,14.20
2012,08,06,07,30,14.20
2012,08,06,07,31,14.20
2012,08,06,07,32,14.20
2012,08,06,07,33,14.20
2012,08,06,07,34,14.20
2012,08,06,07,35,14.20
2012,08,06,07,36,14.20
2012,08,06,07,37,14.20
2012,08,06,07,38,14.20
2012,08,06,07,39,14.20
2012,08,06,07,40,14.30
2012,08,06,07,41,14.30
2012,08,06,07,42,14.40
2012,08,06,07,43,14.40
2012,08,06,07,44,14.50
2012,08,06,07,45,14.50
2012,08,06,07,46,14.60
2012,08,06,07,47,14.60
2012,08,06,07,48,14.80
2012,08,06,07,49,14.80
2012,08,06,07,50,15.00
2012,08,06,07,51,15.10
2012,08,06,07,52,15.20
2012,08,06,07,53,15.30
2012,08,06,07,54,15.40
2012,08,06,07,55,15.50
2012,08,06,07,56,15.60
2012,08,06,07,57,15.60
2012,08,06,07,58,15.70
2012,08,06,07,59,15.80
2012,08,06,08,00,15.80
2012,08,06,08,01,15.80
2012,08,06,08,02,15.80
2012,08,06,08,03,15.50
2012,08,06,08,04,15.20
2012,08,06,08,05,15.00
2012,08,06,08,06,14.80
2012,08,06,08,07,14.70
2012,08,06,08,08,14.70
2012,08,06,08,09,14.60
2012,08,06,08,10,14.60
2012,08,06,08,11,14.60
2012,08,06,08,12,14.60
2012,08,06,08,13,14.60
2012,08,06,08,14,14.70
2012,08,06,08,15,14.70
2012,08,06,08,16,14.80
2012,08,06,08,17,14.80
2012,08,06,08,18,14.90
2012,08,06,08,19,14.90
2012,08,06,08,20,14.90
2012,08,06,08,21,15.00
2012,08,06,08,22,15.00
2012,08,06,08,23,15.00
2012,08,06,08,24,15.10
2012,08,06,08,25,15.20
2012,08,06,08,26,15.20
2012,08,06,08,27,15.30
2012,08,06,08,28,15.40
2012,08,06,08,29,15.50
2012,08,06,08,30,15.60
2012,08,06,08,31,15.60
2012,08,06,08,32,15.70
2012,08,06,08,33,15.70
2012,08,06,08,34,15.70
2012,08,06,08,35,15.70
2012,08,06,08,36,15.80
2012,08,06,08,37,15.80
2012,08,06,08,38,15.80
2012,08,06,08,39,15.80
2012,08,06,08,40,15.80
2012,08,06,08,41,15.80
2012,08,06,08,42,15.90
2012,08,06,08,43,15.90
2012,08,06,08,44,16.00
2012,08,06,08,45,16.10
2012,08,06,08,46,16.10
2012,08,06,08,47,16.10
2012,08,06,08,48,16.20
2012,08,06,08,49,16.30
2012,08,06,08,50,16.40
2012,08,06,08,51,16.40
2012,08,06,08,52,16.50
2012,08,06,08,53,16.60
2012,08,06,08,54,16.70
2012,08,06,08,55,16.70
2012,08,06,08,56,16.80
2012,08,06,08,57,16.90
2012,08,06,08,58,17.00
2012,08,06,08,59,17.10
2012,08,06,09,00,17.20
2012,08,06,09,01,17.30
2012,08,06,09,02,17.40
2012,08,06,09,03,17.50
2012,08,06,09,04,17.50
2012,08,06,09,05,17.60
2012,08,06,09,06,17.70
2012,08,06,09,07,17.80
2012,08,06,09,08,17.90
2012,08,06,09,09,18.00
2012,08,06,09,10,18.20
2012,08,06,09,11,18.20
2012,08,06,09,12,18.40
2012,08,06,09,13,18.50
2012,08,06,09,14,18.60
2012,08,06,09,15,18.80
2012,08,06,09,16,18.90
2012,08,06,09,17,19.10
2012,08,06,09,18,19.20
2012,08,06,09,19,19.20
2012,08,06,09,20,19.30
2012,08,06,09,21,19.40
2012,08,06,09,22,19.50
2012,08,06,09,23,19.60
2012,08,06,09,24,19.70
2012,08,06,09,25,19.80
2012,08,06,09,26,19.90
2012,08,06,09,27,19.90
2012,08,06,09,28,19.70
2012,08,06,09,29,19.60
2012,08,06,09,30,19.40
2012,08,06,09,31,19.20
2012,08,06,09,32,19.00
2012,08,06,09,33,18.90
2012,08,06,09,34,18.90
2012,08,06,09,35,18.90
2012,08,06,09,36,18.80
2012,08,06,09,37,18.70
2012,08,06,09,38,18.60
2012,08,06,09,39,18.50
2012,08,06,09,40,18.40
2012,08,06,09,41,18.30
2012,08,06,09,42,18.30
2012,08,06,09,43,18.40
2012,08,06,09,44,18.50
2012,08,06,09,45,18.60
2012,08,06,09,46,18.70
2012,08,06,09,47,18.90
2012,08,06,09,48,19.00
2012,08,06,09,49,19.10
2012,08,06,09,50,19.20
2012,08,06,09,51,19.30
2012,08,06,09,52,19.30
2012,08,06,09,53,19.40
2012,08,06,09,54,19.40
2012,08,06,09,55,19.40
2012,08,06,09,56,19.40
2012,08,06,09,57,19.30
2012,08,06,09,58,19.20
2012,08,06,09,59,19.10
2012,08,06,10,00,19.10
2012,08,06,10,01,19.00
2012,08,06,10,02,18.90
2012,08,06,10,03,18.90
2012,08,06,10,04,18.90
2012,08,06,10,05,18.90
2012,08,06,10,06,18.90
2012,08,06,10,07,18.90
2012,08,06,10,08,18.80
2012,08,06,10,09,18.70
2012,08,06,10,10,18.70
2012,08,06,10,11,18.60
2012,08,06,10,12,18.60
2012,08,06,10,13,18.60
2012,08,06,10,14,18.60
2012,08,06,10,15,18.80
2012,08,06,10,16,18.90
2012,08,06,10,17,18.90
2012,08,06,10,18,19.00
2012,08,06,10,19,19.10
2012,08,06,10,20,19.20
2012,08,06,10,21,19.20
2012,08,06,10,22,19.20
2012,08,06,10,23,19.30
2012,08,06,10,24,19.30
2012,08,06,10,25,19.40
2012,08,06,10,26,19.50
2012,08,06,10,27,19.60
2012,08,06,10,28,19.60
2012,08,06,10,29,19.70
2012,08,06,10,30,19.70
2012,08,06,10,31,19.70
2012,08,06,10,32,19.60
2012,08,06,10,33,19.60
2012,08,06,10,34,19.60
2012,08,06,10,35,19.50
2012,08,06,10,36,19.40
2012,08,06,10,37,19.30
2012,08,06,10,38,19.10
2012,08,06,10,39,18.90
2012,08,06,10,40,18.80
2012,08,06,10,41,18.80
2012,08,06,10,42,18.80
2012,08,06,10,43,18.80
2012,08,06,10,44,18.80
2012,08,06,10,45,18.90
2012,08,06,10,46,18.90
2012,08,06,10,47,18.90
2012,08,06,10,48,18.90
2012,08,06,10,49,18.90
2012,08,06,10,50,18.90
2012,08,06,10,51,18.70
2012,08,06,10,52,18.70
2012,08,06,10,53,18.60
2012,08,06,10,54,18.60
2012,08,06,10,55,18.60
2012,08,06,10,56,18.60
2012,08,06,10,57,18.60
2012,08,06,10,58,18.60
2012,08,06,10,59,18.60
2012,08,06,11,00,18.50
2012,08,06,11,01,18.50
2012,08,06,11,02,18.40
2012,08,06,11,03,18.40
2012,08,06,11,04,18.30
2012,08,06,11,05,18.20
2012,08,06,11,06,18.20
2012,08,06,11,07,18.20
2012,08,06,11,08,18.20
2012,08,06,11,09,17.90
2012,08,06,11,10,17.40
2012,08,06,11,11,17.00
2012,08,06,11,12,16.60
2012,08,06,11,13,16.20
2012,08,06,11,14,16.00
2012,08,06,11,15,15.80
2012,08,06,11,16,15.80
2012,08,06,11,17,15.80
2012,08,06,11,18,15.80
2012,08,06,11,19,15.80
2012,08,06,11,20,15.70
2012,08,06,11,21,15.70
2012,08,06,11,22,15.60
2012,08,06,11,23,15.60
2012,08,06,11,24,15.60
2012,08,06,11,25,15.60
2012,08,06,11,26,15.70
2012,08,06,11,27,15.80
2012,08,06,11,28,16.00
2012,08,06,11,29,16.20
2012,08,06,11,30,16.30
2012,08,06,11,31,16.50
2012,08,06,11,32,16.70
2012,08,06,11,33,16.90
2012,08,06,11,34,17.00
2012,08,06,11,35,17.10
2012,08,06,11,36,17.30
2012,08,06,11,37,17.40
2012,08,06,11,38,17.50
2012,08,06,11,39,17.70
2012,08,06,11,40,17.80
2012,08,06,11,41,17.90
2012,08,06,11,42,18.00
2012,08,06,11,43,18.20
2012,08,06,11,44,18.20
2012,08,06,11,45,18.40
2012,08,06,11,46,18.40
2012,08,06,11,47,18.50
2012,08,06,11,48,18.60
2012,08,06,11,49,18.70
2012,08,06,11,50,18.80
2012,08,06,11,51,18.90
2012,08,06,11,52,19.00
2012,08,06,11,53,19.10
2012,08,06,11,54,19.10
2012,08,06,11,55,19.10
2012,08,06,11,56,19.10
2012,08,06,11,57,19.10
2012,08,06,11,58,19.10
2012,08,06,11,59,19.10
2012,08,06,12,00,19.10
2012,08,06,12,01,19.00
2012,08,06,12,02,18.80
2012,08,06,12,03,18.50
2012,08,06,12,04,18.30
2012,08,06,12,05,18.20
2012,08,06,12,06,18.10
2012,08,06,12,07,18.00
2012,08,06,12,08,17.80
2012,08,06,12,09,17.50
2012,08,06,12,10,17.20
2012,08,06,12,11,16.80
2012,08,06,12,12,16.40
2012,08,06,12,13,16.10
2012,08,06,12,14,15.90
2012,08,06,12,15,15.70
2012,08,06,12,16,15.60
2012,08,06,12,17,15.50
2012,08,06,12,18,15.50
2012,08,06,12,19,15.40
2012,08,06,12,20,15.40
2012,08,06,12,21,15.50
2012,08,06,12,22,15.50
2012,08,06,12,23,15.40
2012,08,06,12,24,15.40
2012,08,06,12,25,15.30
2012,08,06,12,26,15.30
2012,08,06,12,27,15.30
2012,08,06,12,28,15.30
2012,08,06,12,29,15.40
2012,08,06,12,30,15.50
2012,08,06,12,31,15.60
2012,08,06,12,32,15.70
2012,08,06,12,33,15.80
2012,08,06,12,34,15.90
2012,08,06,12,35,16.00
2012,08,06,12,36,16.10
2012,08,06,12,37,16.20
2012,08,06,12,38,16.20
2012,08,06,12,39,16.30
2012,08,06,12,40,16.30
2012,08,06,12,41,16.20
2012,08,06,12,42,16.20
2012,08,06,12,43,16.10
2012,08,06,12,44,16.10
2012,08,06,12,45,16.00
2012,08,06,12,46,15.90
2012,08,06,12,47,15.90
2012,08,06,12,48,16.10
2012,08,06,12,49,16.20
2012,08,06,12,50,16.40
2012,08,06,12,51,16.60
2012,08,06,12,52,16.80
2012,08,06,12,53,16.90
2012,08,06,12,54,17.00
2012,08,06,12,55,17.20
2012,08,06,12,56,17.30
2012,08,06,12,57,17.30
2012,08,06,12,58,17.40
2012,08,06,12,59,17.50
2012,08,06,13,00,17.60
2012,08,06,13,01,17.60
2012,08,06,13,02,17.60
2012,08,06,13,03,17.60
2012,08,06,13,04,17.60
2012,08,06,13,05,17.70
2012,08,06,13,06,17.70
2012,08,06,13,07,17.70
2012,08,06,13,08,17.70
2012,08,06,13,09,17.70
2012,08,06,13,10,17.70
2012,08,06,13,11,17.70
2012,08,06,13,12,17.70
2012,08,06,13,13,17.70
2012,08,06,13,14,17.70
2012,08,06,13,15,17.70
2012,08,06,13,16,17.70
2012,08,06,13,17,17.70
2012,08,06,13,18,17.70
2012,08,06,13,19,17.70
2012,08,06,13,20,17.60
2012,08,06,13,21,17.60
2012,08,06,13,22,17.50
2012,08,06,13,23,17.50
2012,08,06,13,24,17.40
2012,08,06,13,25,17.30
2012,08,06,13,26,17.30
2012,08,06,13,27,17.30
2012,08,06,13,28,17.20
2012,08,06,13,29,17.20
2012,08,06,13,30,17.20
2012,08,06,13,31,17.20
2012,08,06,13,32,17.20
2012,08,06,13,33,17.20
2012,08,06,13,34,17.30
2012,08,06,13,35,17.30
2012,08,06,13,36,17.30
2012,08,06,13,37,17.30
2012,08,06,13,38,17.40
2012,08,06,13,39,17.40
2012,08,06,13,40,17.50
2012,08,06,13,41,17.50
2012,08,06,13,42,17.50
2012,08,06,13,43,17.60
2012,08,06,13,44,17.60
2012,08,06,13,45,17.60
2012,08,06,13,46,17.60
2012,08,06,13,47,17.50
2012,08,06,13,48,17.50
2012,08,06,13,49,17.50
2012,08,06,13,50,17.50
2012,08,06,13,51,17.60
2012,08,06,13,52,17.60
2012,08,06,13,53,17.60
2012,08,06,13,54,17.70
2012,08,06,13,55,17.70
2012,08,06,13,56,17.70
2012,08,06,13,57,17.80
2012,08,06,13,58,17.80
2012,08,06,13,59,17.80
2012,08,06,14,00,17.90
2012,08,06,14,01,17.90
2012,08,06,14,02,17.90
2012,08,06,14,03,17.90
2012,08,06,14,04,18.00
2012,08,06,14,05,18.10
2012,08,06,14,06,18.20
2012,08,06,14,07,18.20
2012,08,06,14,08,18.20
2012,08,06,14,09,18.30
2012,08,06,14,10,18.30
2012,08,06,14,11,18.40
2012,08,06,14,12,18.40
2012,08,06,14,13,18.40
2012,08,06,14,14,18.50
2012,08,06,14,15,18.50
2012,08,06,14,16,18.60
2012,08,06,14,17,18.60
2012,08,06,14,18,18.60
2012,08,06,14,19,18.70
2012,08,06,14,20,18.70
2012,08,06,14,21,18.80
2012,08,06,14,22,18.90
2012,08,06,14,23,18.90
2012,08,06,14,24,18.90
2012,08,06,14,25,19.10
2012,08,06,14,26,19.10
2012,08,06,14,27,19.10
2012,08,06,14,28,19.20
2012,08,06,14,29,19.20
2012,08,06,14,30,19.20
2012,08,06,14,31,19.30
2012,08,06,14,32,19.30
2012,08,06,14,33,19.30
2012,08,06,14,34,19.40
2012,08,06,14,35,19.40
2012,08,06,14,36,19.50
2012,08,06,14,37,19.50
2012,08,06,14,38,19.60
2012,08,06,14,39,19.70
2012,08,06,14,40,19.70
2012,08,06,14,41,19.80
2012,08,06,14,42,19.90
2012,08,06,14,43,19.90
2012,08,06,14,44,20.00
2012,08,06,14,45,20.10
2012,08,06,14,46,20.10
2012,08,06,14,47,20.20
2012,08,06,14,48,20.10
2012,08,06,14,49,19.90
2012,08,06,14,50,19.80
2012,08,06,14,51,19.70
2012,08,06,14,52,19.70
2012,08,06,14,53,19.70
2012,08,06,14,54,19.70
2012,08,06,14,55,19.70
2012,08,06,14,56,19.70
2012,08,06,14,57,19.70
2012,08,06,14,58,19.70
2012,08,06,14,59,19.70
2012,08,06,15,00,19.70
2012,08,06,15,01,19.70
2012,08,06,15,02,19.80
2012,08,06,15,03,19.90
2012,08,06,15,04,19.90
2012,08,06,15,05,20.00
2012,08,06,15,06,20.10
2012,08,06,15,07,20.10
2012,08,06,15,08,20.20
2012,08,06,15,09,20.20
2012,08,06,15,10,20.20
2012,08,06,15,11,20.20
2012,08,06,15,12,20.20
2012,08,06,15,13,20.20
2012,08,06,15,14,20.30
2012,08,06,15,15,20.30
2012,08,06,15,16,20.40
2012,08,06,15,17,20.40
2012,08,06,15,18,20.30
2012,08,06,15,19,20.00
2012,08,06,15,20,19.70
2012,08,06,15,21,19.40
2012,08,06,15,22,19.20
2012,08,06,15,23,18.90
2012,08,06,15,24,18.80
2012,08,06,15,25,18.60
2012,08,06,15,26,18.60
2012,08,06,15,27,18.50
2012,08,06,15,28,18.50
2012,08,06,15,29,18.50
2012,08,06,15,30,18.40
2012,08,06,15,31,18.40
2012,08,06,15,32,18.40
2012,08,06,15,33,18.30
2012,08,06,15,34,18.30
2012,08,06,15,35,18.20
2012,08,06,15,36,18.20
2012,08,06,15,37,18.20
2012,08,06,15,38,18.20
2012,08,06,15,39,18.20
2012,08,06,15,40,18.10
2012,08,06,15,41,18.00
2012,08,06,15,42,17.90
2012,08,06,15,43,17.90
2012,08,06,15,44,18.00
2012,08,06,15,45,18.20
2012,08,06,15,46,18.30
2012,08,06,15,47,18.50
2012,08,06,15,48,18.60
2012,08,06,15,49,18.60
2012,08,06,15,50,18.70
2012,08,06,15,51,18.80
2012,08,06,15,52,18.90
2012,08,06,15,53,18.90
2012,08,06,15,54,19.00
2012,08,06,15,55,19.10
2012,08,06,15,56,19.10
2012,08,06,15,57,19.20
2012,08,06,15,58,19.20
2012,08,06,15,59,19.30
2012,08,06,16,00,19.40
2012,08,06,16,01,19.50
2012,08,06,16,02,19.60
2012,08,06,16,03,19.70
2012,08,06,16,04,19.80
2012,08,06,16,05,19.90
2012,08,06,16,06,20.10
2012,08,06,16,07,20.20
2012,08,06,16,08,20.30
2012,08,06,16,09,20.40
2012,08,06,16,10,20.50
2012,08,06,16,11,20.60
2012,08,06,16,12,20.80
2012,08,06,16,13,21.00
2012,08,06,16,14,21.20
2012,08,06,16,15,21.40
2012,08,06,16,16,21.60
2012,08,06,16,17,21.60
2012,08,06,16,18,21.80
2012,08,06,16,19,21.90
2012,08,06,16,20,22.00
2012,08,06,16,21,22.10
2012,08,06,16,22,22.20
2012,08,06,16,23,22.30
2012,08,06,16,24,22.40
2012,08,06,16,25,22.50
2012,08,06,16,26,22.40
2012,08,06,16,27,21.70
2012,08,06,16,28,20.90
2012,08,06,16,29,20.10
2012,08,06,16,30,19.50
2012,08,06,16,31,19.00
2012,08,06,16,32,18.60
2012,08,06,16,33,18.30
2012,08,06,16,34,17.90
2012,08,06,16,35,17.70
2012,08,06,16,36,17.40
2012,08,06,16,37,17.30
2012,08,06,16,38,17.10
2012,08,06,16,39,16.90
2012,08,06,16,40,16.80
2012,08,06,16,41,16.70
2012,08,06,16,42,16.50
2012,08,06,16,43,16.40
2012,08,06,16,44,16.40
2012,08,06,16,45,16.30
2012,08,06,16,46,16.20
2012,08,06,16,47,16.20
2012,08,06,16,48,16.20
2012,08,06,16,49,16.20
2012,08,06,16,50,16.30
2012,08,06,16,51,16.30
2012,08,06,16,52,16.40
2012,08,06,16,53,16.40
2012,08,06,16,54,16.40
2012,08,06,16,55,16.40
2012,08,06,16,56,16.40
2012,08,06,16,57,16.40
2012,08,06,16,58,16.40
2012,08,06,16,59,16.50
2012,08,06,17,00,16.60
2012,08,06,17,01,16.50
2012,08,06,17,02,16.40
2012,08,06,17,03,16.30
2012,08,06,17,04,16.30
2012,08,06,17,05,16.30
2012,08,06,17,06,16.30
2012,08,06,17,07,16.40
2012,08,06,17,08,16.50
2012,08,06,17,09,16.60
2012,08,06,17,10,16.70
2012,08,06,17,11,16.90
2012,08,06,17,12,17.00
2012,08,06,17,13,17.20
2012,08,06,17,14,17.30
2012,08,06,17,15,17.30
2012,08,06,17,16,17.30
2012,08,06,17,17,17.30
2012,08,06,17,18,17.40
2012,08,06,17,19,17.50